Location: ???????
(55.4362°N, 38.1183°E)
Time: 17:27:42
(UTC+00:00)

Cosmos 2219 Rocket - Pass Details

Date: 30 October 2021
Orbit: 826 x 848 km, 71.0° (Epoch: 04 December)

Event Time Altitude Azimuth Distance (km) Brightness Sun altitude
Rises 18:21:18 0° 255° (WSW) 3,373 5.8 -37.3°
Reaches altitude 10° 18:24:03 10° 267° (W) 2,445 5.1 -37.6°
Enters shadow 18:28:19 29° 316° (NW) 1,507 3.9 -38.1°
